Temperature
25 24 23 22 21 21 21 20 20 20 20 19 19 19 19 18 18 18 18 18 17 17 18 18 17 17 17 17 17 17 17 17 17 17 18 18 18 18 18 18 18 18 17
25 24 23 22 22 22 21 21 20 20 20 19 19 19 19 18 18 18 18 18 18 18 18 18 18 17 18 17 17 17 17 17 17 17 18 18 18 18 18 18 17 17 17
26 24 23 23 22 22 22 21 21 20 20 20 19 19 19 19 18 18 18 18 18 18 18 18 18 18 17 18 18 17 17 17 17 17 18 18 19 19 18 18 17 17 17
27 25 24 23 23 22 22 21 21 21 20 20 19 19 19 19 19 19 19 18 18 18 18 18 18 18 18 18 18 18 17 17 17 17 17 17 18 18 18 18 18 17 17
27 26 25 24 23 23 22 22 21 21 21 20 20 20 19 19 19 19 19 18 18 18 18 18 18 18 18 18 18 18 17 17 17 17 17 17 17 17 18 18 18 17 17
27 26 25 24 23 23 22 22 22 21 21 21 20 20 19 19 19 19 18 18 18 18 18 18 18 18 18 18 18 18 17 17 17 17 17 17 17 17 17 18 17 17 17
28 26 25 24 23 23 22 22 22 22 21 21 20 20 20 20 19 19 19 18 18 18 18 18 18 18 18 18 18 18 17 17 17 17 17 17 17 17 17 17 17 17 17
28 27 26 24 23 23 22 22 22 22 22 21 21 20 20 19 19 19 19 18 18 18 18 18 18 18 18 18 18 17 17 17 17 17 17 17 17 17 17 17 17 17 17
28 27 26 25 24 23 23 22 22 22 22 21 21 21 20 20 19 19 19 19 18 18 18 18 18 18 18 18 18 17 17 17 17 17 17 17 17 17 17 16 16 16 17
28 27 26 25 24 23 23 22 22 22 22 22 21 21 21 20 20 20 19 19 19 19 18 18 18 18 18 18 18 17 17 17 17 17 17 17 17 17 16 16 16 16 16
27 26 25 25 24 23 23 22 22 22 21 21 21 21 21 20 20 20 19 19 19 19 19 18 18 18 18 18 18 17 17 17 17 17 16 17 17 16 16 16 16 16 16
27 26 25 24 24 23 23 23 22 22 21 21 21 21 21 20 20 20 20 19 19 19 19 18 18 18 17 17 17 17 17 17 17 17 16 16 16 16 16 16 16 16 16
25 25 24 23 23 23 23 22 22 21 21 21 21 21 21 20 20 20 20 19 19 19 18 18 18 18 18 17 17 17 17 17 17 16 16 16 16 16 16 16 16 15 15
24 24 23 23 22 22 22 22 21 21 21 21 20 20 20 20 20 20 20 19 19 19 18 18 18 18 18 17 17 17 17 17 17 17 16 16 16 16 16 16 16 15 15
23 23 22 22 21 21 21 21 21 21 20 20 20 20 20 20 20 20 19 19 19 19 19 18 18 18 18 17 17 17 17 17 16 16 16 16 16 16 16 15 15 15 15
23 22 22 21 21 21 21 21 20 20 20 20 20 19 19 19 19 19 19 19 19 19 18 18 18 18 17 17 17 17 16 16 16 16 16 16 16 16 16 16 16 15 15
22 22 21 21 21 20 20 20 20 20 19 19 19 19 19 19 19 19 19 18 19 19 18 18 17 17 17 17 17 17 16 16 16 16 16 15 15 15 15 15 15 15 15
21 21 21 20 20 20 20 20 20 19 19 19 19 19 19 19 19 18 18 18 18 18 18 18 17 17 17 17 17 17 16 16 16 15 15 15 15 15 15 14 14 14 14
20 19 20 20 20 20 19 19 19 19 19 19 19 19 19 18 18 18 18 18 18 18 17 17 17 17 16 17 17 16 16 15 15 15 15 15 15 15 15 14 14 14 14
18 19 19 19 19 19 19 19 19 19 19 19 18 19 19 18 18 18 18 17 17 17 17 17 16 16 16 16 16 16 15 15 15 15 15 15 15 15 15 14 13 13 13
18 18 18 18 18 18 18 18 18 18 18 18 18 18 18 18 18 17 17 17 17 16 16 16 16 16 16 16 16 16 15 15 15 15 14 14 14 14 14 14 13 13 13
17 17 17 17 17 17 17 18 18 18 17 18 18 18 18 17 17 17 17 16 16 16 16 16 16 16 16 16 16 15 15 15 14 14 14 14 14 14 14 13 13 13 13
17 17 17 17 17 17 17 17 17 17 17 17 17 17 17 17 17 17 16 16 16 16 15 15 15 15 15 15 15 15 15 15 14 14 14 13 13 13 13 13 13 12 12
16 16 16 16 16 16 16 16 16 17 16 16 16 16 16 16 16 16 16 16 15 15 15 15 15 15 15 14 14 14 14 14 14 13 13 13 13 13 13 12 12 12 12
16 15 15 15 15 15 15 15 16 16 16 16 16 16 16 16 15 15 15 15 15 15 15 15 15 14 14 14 14 14 13 13 13 13 13 12 12 12 12 12 11 11 11
15 15 15 15 15 15 15 15 15 15 15 15 15 15 15 15 15 15 15 15 15 14 14 14 14 14 14 14 14 14 13 13 13 12 12 12 11 11 11 11 11 11 10
Wind_Speed
11 11 11 11 11 11 11 10 10 9 8 6 6 6 5 5 4 4 5 5 5 5 5 3 4 4 4 4 4 4 4 4 3 3 3 3 4 4 4 4 3 4 5
11 12 12 12 13 12 12 11 11 11 10 7 6 5 4 4 4 4 4 6 6 6 6 5 5 5 4 5 5 5 4 4 4 4 3 3 4 4 4 4 5 4 4
13 13 13 13 13 13 13 12 12 11 11 9 7 5 4 5 4 5 5 5 6 6 6 5 5 5 6 5 6 6 7 5 4 5 4 4 3 1 3 4 4 4 4
13 13 14 14 14 13 13 12 12 11 10 10 9 8 7 6 5 4 4 4 5 5 5 6 5 5 5 5 7 7 6 6 5 4 5 5 4 3 3 4 4 4 5
13 14 14 14 13 13 12 12 12 11 11 11 10 9 8 6 5 5 5 4 4 5 5 5 5 5 5 5 6 5 6 6 6 5 5 5 4 7 5 5 4 4 4
12 13 13 12 12 12 12 12 12 11 11 11 11 10 9 7 6 5 5 5 4 4 5 5 5 5 5 5 5 5 6 6 6 6 5 5 4 5 5 6 5 5 4
12 13 13 13 13 13 13 12 12 12 11 11 11 10 10 8 8 6 6 5 4 4 5 5 5 4 4 5 5 5 5 6 6 6 5 5 5 5 5 6 5 5 4
11 12 13 13 13 13 13 12 12 11 11 11 10 9 9 8 6 7 5 5 5 4 4 5 5 5 5 5 5 5 5 5 6 6 6 5 6 5 5 5 5 5 5
10 11 12 12 12 13 13 13 12 11 11 11 10 9 9 8 7 6 6 5 5 5 5 5 5 5 5 5 5 4 5 5 6 6 6 6 5 5 5 5 5 5 5
8 10 10 11 11 12 11 11 11 11 11 10 10 8 9 9 8 7 7 6 6 5 5 6 6 6 5 5 5 5 4 5 5 4 5 5 5 4 4 5 5 5 5
7 8 8 9 10 11 11 11 11 10 10 10 9 8 8 9 8 8 7 7 6 7 7 7 6 6 5 5 5 5 5 5 5 5 4 4 4 4 4 4 4 4 4
6 7 8 8 9 10 10 10 10 10 10 9 9 9 8 8 8 8 8 7 7 7 7 7 6 6 5 5 5 5 5 5 5 5 4 4 3 3 3 3 3 3 3
5 6 7 7 7 8 8 9 9 9 9 9 9 9 9 9 8 7 7 7 7 7 7 6 6 6 5 5 5 5 5 5 4 4 4 4 4 3 3 3 3 3 3
5 5 6 6 5 6 7 7 7 7 8 8 9 9 9 8 8 8 7 7 7 7 7 7 6 6 6 6 6 6 5 5 4 3 4 4 4 4 4 4 4 3 3
4 4 4 5 5 5 5 5 6 6 6 7 8 8 8 7 7 7 7 7 7 8 7 7 7 7 6 6 6 6 6 6 5 4 4 4 2 2 3 3 3 3 3
3 3 3 3 3 4 5 6 5 5 6 6 7 6 7 7 7 7 7 7 7 7 7 7 7 7 6 4 5 6 6 6 6 5 4 4 4 4 3 2 2 2 4
2 2 2 2 2 3 4 5 5 5 5 5 5 6 6 6 7 7 7 7 7 6 6 6 6 6 4 5 6 6 6 6 5 5 5 4 3 4 4 4 5 3 1
2 1 1 1 1 2 3 4 4 5 5 5 5 5 6 6 6 6 6 6 6 5 6 6 6 5 5 6 6 7 7 6 6 6 5 5 3 3 3 4 4 3 3
3 2 2 1 1 1 1 3 4 4 5 5 5 5 5 5 5 5 5 5 5 5 5 5 5 5 4 6 6 7 7 6 6 6 6 6 5 4 3 4 3 3 3
4 3 2 2 2 2 1 2 2 3 3 4 4 4 4 4 4 4 4 4 4 5 4 4 5 5 4 6 8 8 6 5 5 5 5 5 4 5 5 5 4 3 3
3 3 2 2 2 1 1 1 1 2 2 2 2 3 3 4 4 4 4 3 4 4 4 4 4 5 4 7 8 8 6 5 5 4 4 4 8 7 6 4 3 2 2
4 4 3 2 2 1 0 1 1 1 1 2 2 2 2 2 3 3 4 5 5 5 4 5 5 4 4 4 7 9 8 5 4 4 3 4 9 8 6 4 3 3 3
4 4 3 2 2 2 1 1 1 2 2 2 3 3 3 2 3 3 4 5 5 5 5 5 5 4 3 4 7 10 9 7 5 2 3 6 8 7 6 5 5 5 4
4 4 3 2 2 2 2 2 2 3 3 3 3 3 3 3 2 3 3 4 4 4 5 5 4 3 3 3 3 4 5 6 5 3 5 8 7 5 3 5 5 4 3
5 4 4 3 3 3 3 3 2 2 2 2 2 3 3 3 2 2 1 1 0 2 3 3 3 3 3 1 1 3 4 4 4 4 4 4 4 4 4 3 3 3 3
5 4 4 4 4 3 3 3 3 2 3 3 3 3 2 2 2 2 2 5 3 4 3 4 3 1 1 1 2 3 3 3 5 5 4 4 4 4 4 4 3 3 2
Wind_Direction
202 196 196 194 191 190 190 192 196 188 189 191 196 196 197 201 203 208 205 206 206 202 217 228 198 217 214 223 223 230 220 224 214 230 234 230 226 223 225 232 238 223 221
198 194 195 193 194 192 192 192 196 194 197 194 199 202 206 211 210 214 205 214 213 213 211 221 222 217 219 222 227 232 241 235 215 234 242 238 217 213 221 220 224 235 227
202 194 195 196 195 194 195 196 198 196 200 195 196 195 198 217 208 209 206 212 215 218 228 224 230 226 230 224 226 228 233 240 234 233 250 262 257 241 212 221 227 230 234
204 198 195 197 197 195 193 195 195 197 197 198 204 204 210 215 213 210 202 203 212 221 223 230 235 236 242 238 237 226 235 241 244 238 242 257 278 268 256 227 221 225 236
201 197 196 195 195 192 190 190 191 194 195 200 203 209 219 219 213 205 201 214 210 216 226 233 236 235 241 245 253 245 243 239 243 245 244 245 243 249 260 264 252 240 239
196 194 192 189 190 187 186 186 187 192 194 198 204 210 216 217 216 213 210 214 209 211 216 227 231 237 246 243 246 247 239 244 249 253 250 248 250 254 254 263 263 258 250
191 189 187 186 187 186 186 185 186 191 194 198 204 208 213 212 214 220 217 224 222 216 215 229 228 233 238 244 245 243 250 243 246 248 254 255 254 260 258 264 266 267 260
186 186 185 185 185 186 185 185 185 189 193 197 202 207 210 215 214 211 227 222 233 234 221 222 227 232 236 242 239 245 243 243 246 248 249 254 254 255 256 259 265 267 260
180 181 181 183 183 185 186 186 185 190 194 196 199 204 207 215 215 207 216 224 224 225 213 218 226 230 235 243 248 249 253 252 252 254 246 251 257 258 259 252 248 260 265
175 175 177 179 181 182 182 185 187 191 193 195 198 198 202 206 209 214 214 222 222 223 217 217 223 227 230 232 239 246 250 257 256 262 267 265 264 262 259 258 249 249 262
169 168 170 174 177 178 178 182 187 192 193 194 195 200 200 201 204 209 213 215 217 213 217 220 222 225 227 227 232 247 247 251 257 261 257 257 265 266 261 257 253 248 247
161 158 158 165 173 177 179 183 187 194 194 190 190 195 198 200 204 205 208 209 211 213 217 221 220 221 222 222 226 236 240 245 250 256 258 259 249 244 258 260 255 254 249
155 154 152 160 170 174 179 184 190 195 191 187 190 190 194 199 204 204 202 203 205 209 212 211 213 216 219 225 229 230 232 236 242 248 250 257 256 250 250 251 251 248 239
150 152 148 152 161 170 175 183 189 190 189 190 192 192 195 197 201 201 199 200 201 204 208 210 210 211 214 223 229 229 227 227 229 236 243 249 248 253 257 248 244 245 239
132 139 148 148 161 167 173 180 183 183 188 191 193 194 197 198 200 199 199 198 201 205 204 208 207 210 212 218 223 229 226 223 221 221 227 230 229 294 278 277 256 236 236
114 124 143 155 170 174 176 176 178 180 184 192 193 192 195 197 198 199 199 199 202 208 205 210 211 212 219 180 204 235 225 220 222 224 226 215 201 205 214 262 303 287 245
84 100 123 159 179 184 183 180 177 177 180 190 192 190 195 199 201 201 197 198 201 203 203 211 214 217 209 168 198 226 229 222 225 223 221 225 201 197 212 186 191 194 173
30 34 31 103 155 172 176 182 176 172 178 186 192 193 197 201 200 201 200 200 199 200 204 210 214 219 202 175 199 215 221 221 219 222 219 219 205 206 213 206 195 194 181
8 5 5 27 64 93 160 181 181 175 177 182 191 195 193 198 197 199 204 201 198 200 204 204 215 221 204 178 193 212 220 218 217 217 214 213 205 158 191 217 204 192 173
2 2 21 40 46 45 72 181 176 173 188 194 193 187 181 188 194 193 202 204 203 203 200 205 217 220 218 183 191 208 222 217 216 209 205 202 207 156 183 210 210 210 197
359 6 20 39 37 33 40 193 178 181 192 195 182 177 184 196 199 188 188 202 219 214 207 213 219 216 215 184 188 202 221 225 220 214 209 183 158 163 181 217 222 194 198
355 1 4 6 358 348 289 213 209 203 191 182 176 177 186 205 197 188 197 201 211 214 212 220 223 213 203 196 188 198 218 249 226 223 213 157 147 161 174 195 158 155 209
336 336 336 333 329 316 290 271 247 222 205 190 193 196 196 199 210 199 208 210 208 218 221 223 224 220 210 192 182 193 202 220 226 214 109 124 149 161 174 180 177 194 213
318 319 317 319 324 318 299 281 269 233 216 203 201 199 197 201 201 211 215 219 220 223 230 231 234 231 218 215 196 194 189 192 203 192 142 149 162 177 158 163 181 209 219
300 300 304 304 303 305 305 305 298 257 226 219 219 226 223 205 204 200 246 234 264 292 267 259 255 255 249 244 226 209 199 196 185 173 171 174 173 178 179 183 192 203 205
287 285 283 281 285 293 301 307 301 272 244 237 236 239 233 207 202 178 131 58 64 52 29 357 319 333 54 107 138 154 155 148 161 179 187 191 197 197 192 188 190 196 205
Height
1525 1528 1530 1532 1533 1535 1537 1538 1540 1542 1543 1545 1546 1547 1549 1550 1550 1551 1551 1552 1553 1553 1554 1555 1555 1555 1556 1557 1558 1558 1559 1559 1560 1561 1561 1560 1560 1560 1560 1560 1560 1560 1560
1522 1525 1527 1529 1531 1532 1534 1536 1538 1540 1541 1543 1544 1545 1547 1548 1549 1550 1550 1550 1551 1552 1553 1553 1554 1554 1554 1555 1555 1556 1557 1558 1558 1559 1559 1559 1559 1558 1558 1557 1557 1557 1557
1517 1521 1523 1526 1528 1530 1532 1534 1536 1538 1539 1541 1543 1544 1545 1546 1548 1548 1548 1549 1549 1550 1551 1551 1552 1552 1553 1553 1553 1554 1554 1555 1556 1557 1557 1557 1556 1556 1556 1555 1555 1555 1555
1513 1517 1520 1522 1525 1527 1529 1531 1533 1535 1537 1539 1541 1542 1543 1545 1545 1546 1547 1547 1548 1548 1549 1549 1550 1550 1551 1551 1551 1552 1552 1553 1553 1554 1554 1555 1554 1555 1554 1554 1553 1552 1552
1509 1513 1516 1519 1522 1525 1527 1529 1530 1532 1534 1536 1538 1539 1541 1543 1544 1544 1545 1545 1546 1546 1547 1547 1548 1548 1548 1548 1549 1549 1549 1550 1550 1551 1551 1552 1552 1552 1552 1551 1551 1550 1550
1505 1509 1513 1516 1519 1522 1524 1526 1528 1529 1531 1533 1535 1537 1539 1540 1541 1542 1543 1544 1545 1545 1545 1545 1545 1546 1546 1546 1546 1546 1547 1547 1547 1548 1548 1549 1549 1549 1549 1548 1548 1547 1547
1502 1505 1509 1512 1515 1518 1521 1523 1525 1527 1529 1531 1532 1534 1536 1537 1538 1540 1541 1542 1543 1543 1543 1543 1543 1544 1544 1544 1544 1544 1544 1544 1544 1545 1545 1546 1546 1546 1546 1545 1545 1544 1544
1499 1502 1506 1509 1512 1515 1517 1520 1522 1524 1526 1528 1530 1532 1533 1535 1537 1537 1539 1540 1541 1541 1541 1541 1541 1541 1541 1542 1542 1542 1542 1542 1542 1542 1542 1542 1543 1543 1542 1542 1542 1541 1541
1496 1500 1503 1506 1509 1512 1514 1517 1519 1521 1523 1526 1527 1529 1531 1532 1534 1535 1536 1537 1538 1539 1538 1539 1539 1539 1539 1539 1539 1540 1539 1539 1539 1540 1540 1540 1540 1539 1539 1539 1539 1539 1538
1495 1498 1501 1504 1507 1509 1512 1515 1517 1519 1521 1523 1525 1527 1528 1529 1531 1532 1533 1534 1535 1536 1536 1536 1536 1537 1537 1537 1537 1537 1537 1537 1537 1536 1536 1536 1537 1536 1535 1535 1535 1535 1535
1493 1496 1499 1502 1504 1507 1509 1511 1514 1516 1518 1520 1522 1524 1525 1527 1528 1529 1530 1531 1532 1533 1533 1534 1534 1534 1534 1534 1534 1535 1535 1534 1534 1534 1534 1533 1533 1533 1532 1532 1532 1532 1532
1492 1495 1498 1500 1502 1505 1507 1509 1511 1513 1515 1517 1519 1520 1522 1524 1526 1527 1528 1529 1530 1530 1531 1531 1531 1532 1532 1532 1531 1532 1532 1532 1531 1531 1531 1531 1530 1530 1529 1529 1529 1529 1529
1492 1494 1496 1498 1500 1502 1504 1506 1509 1511 1513 1514 1516 1517 1519 1521 1523 1524 1525 1526 1527 1527 1528 1528 1528 1529 1529 1529 1529 1529 1529 1529 1528 1528 1528 1528 1528 1527 1527 1526 1527 1526 1527
1492 1494 1495 1496 1499 1501 1502 1504 1507 1509 1510 1512 1513 1515 1516 1518 1520 1521 1521 1523 1523 1524 1525 1525 1525 1525 1525 1526 1527 1526 1526 1526 1525 1525 1525 1525 1525 1524 1524 1524 1523 1524 1524
1492 1493 1494 1495 1497 1499 1500 1502 1504 1506 1507 1509 1511 1512 1514 1515 1517 1518 1518 1519 1520 1520 1521 1522 1522 1521 1521 1522 1523 1523 1523 1522 1522 1522 1522 1522 1522 1521 1522 1522 1522 1521 1522
1491 1493 1494 1495 1496 1497 1498 1500 1501 1503 1504 1506 1508 1509 1511 1512 1513 1514 1514 1515 1516 1517 1517 1518 1518 1518 1518 1518 1518 1519 1520 1519 1519 1519 1519 1519 1518 1518 1518 1518 1518 1518 1519
1491 1492 1493 1494 1494 1495 1496 1498 1499 1500 1502 1504 1505 1506 1507 1509 1509 1510 1511 1511 1512 1513 1514 1515 1515 1515 1514 1514 1515 1515 1515 1516 1516 1516 1516 1516 1516 1515 1516 1515 1515 1515 1515
1491 1492 1492 1493 1493 1494 1495 1496 1497 1498 1499 1500 1502 1503 1505 1505 1506 1507 1507 1508 1509 1510 1511 1511 1512 1511 1511 1511 1511 1511 1511 1513 1513 1513 1513 1513 1513 1513 1513 1513 1513 1513 1512
1491 1491 1491 1491 1491 1492 1493 1494 1495 1496 1496 1497 1499 1500 1501 1502 1503 1503 1504 1505 1506 1506 1507 1508 1508 1508 1508 1508 1508 1508 1508 1509 1509 1509 1509 1509 1509 1510 1510 1510 1510 1510 1510
1490 1489 1489 1489 1490 1489 1491 1492 1492 1493 1494 1495 1496 1496 1497 1498 1499 1500 1501 1502 1502 1503 1503 1504 1505 1504 1504 1504 1503 1504 1505 1505 1505 1505 1505 1505 1506 1506 1506 1507 1508 1508 1508
1489 1488 1488 1488 1488 1488 1489 1490 1490 1491 1492 1492 1492 1493 1494 1495 1496 1496 1497 1498 1500 1500 1498 1501 1501 1500 1500 1500 1500 1500 1500 1501 1502 1502 1502 1502 1502 1503 1503 1504 1504 1505 1506
1488 1487 1487 1487 1487 1486 1487 1487 1487 1488 1489 1489 1489 1490 1490 1492 1493 1493 1494 1494 1496 1497 1496 1497 1497 1496 1496 1496 1496 1497 1497 1497 1498 1498 1499 1499 1499 1499 1500 1500 1501 1501 1502
1487 1487 1486 1485 1485 1484 1484 1484 1485 1485 1486 1486 1486 1487 1487 1487 1488 1489 1491 1491 1491 1493 1494 1495 1494 1493 1492 1492 1492 1493 1493 1493 1494 1495 1495 1495 1496 1496 1497 1497 1498 1498 1499
1485 1485 1484 1483 1482 1482 1482 1482 1482 1482 1483 1483 1483 1483 1484 1484 1485 1485 1486 1488 1488 1489 1491 1491 1490 1490 1489 1489 1489 1489 1489 1489 1490 1491 1491 1492 1493 1493 1493 1494 1494 1495 1496
1483 1482 1481 1481 1480 1480 1480 1480 1480 1479 1480 1480 1480 1480 1481 1482 1482 1482 1483 1484 1485 1486 1487 1487 1487 1486 1486 1485 1485 1484 1484 1485 1486 1487 1488 1488 1489 1490 1490 1490 1491 1492 1493
1480 1479 1479 1479 1478 1478 1477 1476 1476 1476 1477 1477 1477 1478 1479 1479 1479 1479 1480 1480 1481 1482 1483 1483 1483 1482 1482 1481 1481 1480 1480 1481 1482 1483 1484 1484 1486 1486 1487 1487 1488 1489 1490